Flag for Bosnia-Herzegovina Weather past 2 weeks in Mostar, Bosnia-Herzegovina

Now
55 °F

Scattered clouds.


Feels Like: 54 °F
Forecast: 49 / 74 °F
Wind: 6 mph from North

Location: Mostar

Current Time: May 23, 2015 at 7:25:32 AM

Latest Report: May 23, 2015 at 7:00 AM


Visibility: 4 mi

Pressure: 29.83 "Hg

Humidity: 100%

Dew point: 55 °F

Location of MostarLocation

Historic Weather in Mostar — Graph

°F

Mostar temperature yesterday

Maximum temperature yesterday: 68 °F (at 1:30 PM)
Minimum temperature yesterday: 57 °F (at 9:00 PM)
Average temperature yesterday: 63 °F

Past Weeks' High & Low Weather Summary

 TemperatureHumidityPressure
High90 °F (May 18, 3:00 PM)100% (May 22, 9:00 PM)30.21 "Hg (May 22, 9:00 PM)
Low50 °F (May 13, 5:30 AM)18% (May 11, 1:30 PM)29.68 "Hg (May 22, 3:00 PM)
Average70 °F55%29.93 "Hg
* Reported May 8 6:00 AM — May 23 6:00 AM, Mostar, Weather by CustomWeather, © 2015

Note: Actual official high and low records may vary slightly from our data, if they occured in-between our weather recording intervals... More about our weather records

Advertising

Mostar weather history for previous 24 hours

 ConditionsComfort  
Time TempWeatherWind HumidityBarometerVisibility
6:00 AM
Sat, May 23
54 °FFog.3 mph94%29.80 "Hg2 mi
5:00 AM55 °FPassing clouds.2 mph94%29.80 "Hg4 mi
4:00 AM55 °FPassing clouds.2 mph94%29.80 "Hg6 mi
3:30 AM54 °FPassing clouds.2 mph100%29.83 "HgN/A
2:00 AM55 °FPassing clouds.2 mph100%29.80 "Hg5 mi
1:00 AM55 °FPassing clouds.3 mph100%29.80 "HgN/A
12:00 AM57 °FPassing clouds.3 mph94%29.80 "Hg4 mi
11:00 PM
Fri, May 22
57 °FPassing clouds.3 mph100%29.80 "HgN/A
10:00 PM57 °FLight rain. Overcast.2 mph100%29.80 "HgN/A
9:00 PM57 °FLight rain. Cloudy.3 mph100%29.77 "HgN/A
8:00 PM59 °FHeavy rain. Fog.3 mph94%29.77 "Hg2 mi
7:00 PM59 °FHeavy rain. Fog.7 mph94%29.77 "Hg2 mi
6:30 PM61 °FHeavy rain. Fog.9 mph94%29.77 "Hg2 mi
6:00 PM61 °FRain. Mostly cloudy.8 mph94%29.74 "Hg4 mi
5:30 PM63 °FThundershowers. Mostly cloudy.7 mph94%29.71 "HgN/A
5:00 PM63 °FLight rain. Mostly cloudy.2 mph88%29.71 "Hg6 mi
4:30 PM63 °FRain. Fog.2 mph94%29.71 "Hg3 mi
4:00 PM64 °FRain. Mostly cloudy.2 mph83%29.71 "Hg6 mi
3:30 PM68 °FLight rain. Broken clouds.6 mph69%29.71 "HgN/A
3:00 PM68 °FBroken clouds.7 mph69%29.68 "HgN/A
2:30 PM68 °FBroken clouds.3 mph69%29.71 "HgN/A
2:00 PM66 °FBroken clouds.9 mph73%29.71 "HgN/A
1:30 PM68 °FBroken clouds.2 mph69%29.71 "HgN/A
1:00 PM64 °FBroken clouds.2 mph83%29.74 "HgN/A
12:30 PM64 °FBroken clouds.3 mph83%29.77 "HgN/A
12:00 PM63 °FLight rain. Broken clouds.6 mph83%29.77 "HgN/A
11:30 AM64 °FLight rain. Broken clouds.3 mph88%29.77 "HgN/A
11:00 AM64 °FLight rain. Broken clouds.3 mph88%29.80 "HgN/A
10:30 AM64 °FBroken clouds.2 mph83%29.77 "HgN/A
10:00 AM64 °FLight rain. Broken clouds.6 mph83%29.77 "HgN/A
9:30 AM63 °FLight rain. Partly sunny.6 mph94%29.77 "HgN/A
9:00 AM63 °FPassing clouds.2 mph94%29.77 "HgN/A
8:30 AM63 °FPassing clouds.3 mph94%29.77 "HgN/A
8:00 AM63 °FPassing clouds.2 mph94%29.80 "HgN/A
7:30 AM63 °FPassing clouds.2 mph88%29.80 "HgN/A
7:00 AM61 °FPassing clouds.3 mph94%29.80 "HgN/A
Weather by CustomWeather, © 2015

See weather overviewHow to use our weather pages